Location: Unspecified
(62.4273°N, 0.0000°E)
Time: 14:09:43
(UTC+00:00)

PEGASUS DEB - Visible Passes

Search period start: 04 April 2026 00:00
Search period end: 14 April 2026 00:00
Orbit: 563 x 930 km, 81.9° (Epoch: 27 March)

Date Brightness Start Highest point End Pass type
(mag) Time Alt. Az. Time Alt. Az. Time Alt. Az.
4 Apr ? 00:49:44 13° W 00:52:53 22° NW 00:56:30 10° N visible
4 Apr ? 20:47:09 13° E 20:48:36 15° E 20:51:10 10° NE visible
4 Apr ? 22:26:56 40° SSE 22:28:29 62° E 22:32:59 10° NNE visible
5 Apr ? 00:06:43 19° WSW 00:09:25 33° WNW 00:13:31 10° N visible
5 Apr ? 01:49:48 10° NW 01:51:27 12° NW 01:53:03 10° NNW visible
5 Apr ? 21:43:53 28° SE 21:45:30 36° E 21:49:39 10° NNE visible
5 Apr ? 23:23:40 27° SW 23:26:04 52° WNW 23:30:28 10° NNE visible
6 Apr ? 01:04:45 10° W 01:07:42 16° NW 01:10:30 10° N visible
6 Apr ? 21:00:47 18° ESE 21:02:39 22° E 21:06:06 10° NE visible
6 Apr ? 22:40:33 31° SSW 22:42:51 86° WNW 22:47:19 10° NNE visible
7 Apr ? 00:20:20 10° WSW 00:24:05 23° NW 00:27:38 10° N visible
7 Apr ? 20:17:47 10° ESE 20:19:55 13° ENE 20:21:59 10° NE visible
7 Apr ? 21:57:26 28° SSE 21:59:44 56° E 22:04:05 10° NNE visible
7 Apr ? 23:37:12 15° WSW 23:40:36 34° WNW 23:44:39 10° N visible
8 Apr ? 01:20:58 10° WNW 01:22:34 12° NW 01:24:09 10° NNW visible
8 Apr ? 21:14:16 20° SE 21:16:45 32° E 21:20:42 10° NNE visible
8 Apr ? 22:54:02 19° SW 22:57:15 56° WNW 23:01:34 10° NNE visible
9 Apr ? 00:35:55 10° W 00:38:49 16° NW 00:41:36 10° N visible
9 Apr ? 20:31:04 12° SE 20:33:53 19° E 20:37:03 10° NE visible
9 Apr ? 22:10:50 20° SSW 22:14:01 87° ESE 22:18:24 10° NNE visible
9 Apr ? 23:51:27 10° WSW 23:55:12 24° NW 23:58:44 10° N visible
10 Apr ? 21:27:33 17° SSE 21:30:55 50° E 21:35:07 10° NNE visible
10 Apr ? 23:07:25 10° SW 23:11:43 36° WNW 23:15:43 10° N visible
11 Apr ? 00:52:01 10° WNW 00:53:37 12° NW 00:55:13 10° NNW visible
11 Apr ? 20:44:14 11° SSE 20:47:56 29° E 20:51:40 10° NNE visible
11 Apr ? 22:24:00 11° SSW 22:28:22 60° WNW 22:32:36 10° NNE visible
12 Apr ? 00:06:58 10° W 00:09:52 17° NW 00:12:40 10° N visible
12 Apr ? 20:02:08 10° SE 20:05:05 17° E 20:07:54 10° NE visible
12 Apr ? 21:40:37 10° S 21:45:08 80° ESE 21:49:24 10° NNE visible
12 Apr ? 23:22:33 10° WSW 23:26:15 24° NW 23:29:45 10° N visible
13 Apr ? 20:57:41 10° S 21:02:01 45° E 21:06:05 10° NNE visible
13 Apr ? 22:38:33 10° SW 22:42:46 38° WNW 22:46:44 10° N visible
